Volver al catálogo

FENGYUN 1C DEB

ActivoPO
NORAD 37427·DEBRIS·🇨🇳 China

Lanzado May 10, 1999 desde Taiyuan Satellite Launch Center

Loading…

Próximos Pases (próximas 24 horas)

TLE

EnvejeciendoSource: Space-Track

Época: Sep 9, 2026, 17:38 UTC

1 37427U 99025EGV 26252.73479134  .00004729  00000-0  26892-3 0  9995
2 37427  98.6400  69.5176 0169627 126.0229 235.6849 15.02011798643867

Sigue FENGYUN 1C DEB en tiempo real con AllMySat

Download on the App Store